Location: Pensacola
(30.4142°N, 87.2155°W)
Time: 18:47:20
(UTC-06:00)

OTV 5 (USA 277) - Visible Passes

Search period start: 22 February 2018 00:00
Search period end: 04 March 2018 00:00
Orbit: 404 x 417 km, 43.0° (Epoch: 07 September)

Date Brightness Start Highest point End Pass type
(mag) Time Alt. Az. Time Alt. Az. Time Alt. Az.
22 Feb ? 04:19:05 17° NE 04:19:05 17° NE 04:19:56 10° NE visible
22 Feb ? 05:52:20 10° NW 05:54:21 15° NNW 05:56:22 10° NNE visible
23 Feb ? 05:03:20 20° NNW 05:03:20 20° NNW 05:05:37 10° NNE visible
24 Feb ? 04:14:44 10° NE 04:14:44 10° NE 04:14:49 10° NE visible
24 Feb ? 05:49:24 10° NNW 05:49:59 10° N 05:50:36 10° N visible
25 Feb ? 04:58:49 12° N 04:58:49 12° N 05:00:05 10° NNE visible
28 Feb ? 05:40:30 10° N 05:41:27 11° N 05:42:23 10° NNE visible
02 Mar ? 05:34:51 10° NNW 05:37:03 17° NNE 05:39:16 10° ENE visible
03 Mar ? 04:44:46 12° N 04:45:48 13° NNE 04:47:27 10° NE visible
